TimeEST,TemperatureF,Dew PointF,Humidity,Sea Level PressureIn,VisibilityMPH,Wind Direction,Wind SpeedMPH,Gust SpeedMPH,PrecipitationIn,Events,Conditions,WindDirDegrees,DateUTC
12:15 AM,18.0,9.7,70,29.99,10.0,NW,5.8,-,N/A,Snow,Light Snow,310,2013-01-01 05:15:00
12:35 AM,17.6,10.2,73,30.00,10.0,WNW,6.9,-,N/A,Snow,Light Snow,290,2013-01-01 05:35:00
1:15 AM,17.6,10.9,75,30.00,10.0,WNW,5.8,-,N/A,Snow,Light Snow,290,2013-01-01 06:15:00
1:35 AM,17.6,10.9,75,30.01,10.0,West,5.8,-,N/A,Snow,Light Snow,280,2013-01-01 06:35:00
1:55 AM,16.9,10.2,75,30.01,10.0,West,4.6,-,N/A,Snow,Light Snow,260,2013-01-01 06:55:00
2:15 AM,16.7,10.0,75,30.01,10.0,West,5.8,-,N/A,Snow,Light Snow,260,2013-01-01 07:15:00
2:35 AM,16.5,10.2,76,30.01,10.0,West,4.6,-,N/A,Snow,Light Snow,260,2013-01-01 07:35:00
2:55 AM,16.7,10.4,76,30.02,10.0,West,4.6,-,N/A,Snow,Light Snow,270,2013-01-01 07:55:00
3:15 AM,16.5,10.0,76,30.01,10.0,West,4.6,-,N/A,,Overcast,280,2013-01-01 08:15:00
3:35 AM,16.7,10.0,75,30.01,10.0,West,5.8,-,N/A,,Overcast,270,2013-01-01 08:35:00
3:55 AM,16.3,10.0,76,30.01,10.0,Calm,Calm,-,N/A,Snow,Light Snow,0,2013-01-01 08:55:00
4:15 AM,16.3,10.4,77,30.01,10.0,WSW,3.5,-,N/A,,Overcast,250,2013-01-01 09:15:00
4:35 AM,16.3,10.4,77,30.01,10.0,WSW,3.5,-,N/A,,Overcast,240,2013-01-01 09:35:00
5:15 AM,17.4,10.8,75,30.02,10.0,West,3.5,-,N/A,,Overcast,270,2013-01-01 10:15:00
5:35 AM,16.9,10.4,76,30.02,10.0,West,3.5,-,N/A,Snow,Light Snow,270,2013-01-01 10:35:00
5:55 AM,17.4,10.9,76,30.02,10.0,West,3.5,-,N/A,,Overcast,270,2013-01-01 10:55:00
6:15 AM,17.1,10.8,76,30.02,10.0,West,3.5,-,N/A,,Overcast,270,2013-01-01 11:15:00
6:35 AM,16.7,10.9,78,30.02,10.0,West,3.5,-,N/A,,Overcast,260,2013-01-01 11:35:00
6:54 AM,16.3,10.9,79,30.03,10.0,WSW,3.5,-,N/A,,Overcast,250,2013-01-01 11:54:00
7:15 AM,16.3,11.3,81,30.03,10.0,WSW,4.6,-,N/A,,Overcast,240,2013-01-01 12:15:00
7:35 AM,16.5,11.3,80,30.05,10.0,West,5.8,-,N/A,,Overcast,260,2013-01-01 12:35:00
7:54 AM,16.7,11.7,81,30.05,10.0,West,4.6,-,N/A,,Overcast,270,2013-01-01 12:54:00
8:15 AM,16.3,11.3,81,30.04,10.0,West,3.5,-,N/A,,Overcast,260,2013-01-01 13:15:00
8:35 AM,16.5,11.8,82,30.05,3.0,WSW,4.6,-,N/A,Snow,Light Snow,250,2013-01-01 13:35:00
8:54 AM,16.7,12.0,82,30.06,10.0,WSW,4.6,-,N/A,Snow,Light Snow,240,2013-01-01 13:54:00
9:15 AM,17.6,12.9,82,30.06,10.0,West,5.8,-,N/A,,Overcast,270,2013-01-01 14:15:00
9:35 AM,18.3,13.3,81,30.06,10.0,West,6.9,-,N/A,,Overcast,260,2013-01-01 14:35:00
10:15 AM,18.9,12.6,76,30.07,10.0,West,4.6,-,N/A,,Overcast,280,2013-01-01 15:15:00
10:35 AM,19.2,12.4,75,30.07,10.0,West,5.8,-,N/A,Snow,Light Snow,280,2013-01-01 15:35:00
10:55 AM,19.4,12.2,74,30.08,10.0,West,5.8,-,N/A,Snow,Light Snow,280,2013-01-01 15:55:00
11:15 AM,20.1,12.9,74,30.08,10.0,West,6.9,-,N/A,Snow,Light Snow,270,2013-01-01 16:15:00
11:35 AM,21.2,13.5,72,30.06,10.0,West,8.1,-,N/A,Snow,Light Snow,270,2013-01-01 16:35:00
12:15 PM,21.2,11.7,67,30.03,10.0,West,4.6,-,N/A,Snow,Light Snow,270,2013-01-01 17:15:00
12:34 PM,21.2,10.0,62,30.02,10.0,WNW,10.4,-,N/A,,Overcast,290,2013-01-01 17:34:00
1:15 PM,21.2,10.8,64,30.00,10.0,West,8.1,-,N/A,Snow,Light Snow,260,2013-01-01 18:15:00
1:34 PM,21.2,10.0,62,29.99,10.0,WNW,9.2,-,N/A,,Overcast,290,2013-01-01 18:34:00
1:55 PM,21.2,10.4,63,29.99,10.0,West,8.1,-,N/A,Snow,Light Snow,260,2013-01-01 18:55:00
2:15 PM,21.2,10.6,64,29.99,10.0,West,9.2,-,N/A,Snow,Light Snow,260,2013-01-01 19:15:00
2:34 PM,21.2,10.9,65,29.99,10.0,WSW,8.1,-,N/A,Snow,Light Snow,250,2013-01-01 19:34:00
3:15 PM,21.2,13.1,71,29.99,10.0,WSW,4.6,-,N/A,Snow,Light Snow,250,2013-01-01 20:15:00
3:35 PM,21.2,14.5,75,29.99,5.0,WSW,8.1,-,N/A,Snow,Light Snow,250,2013-01-01 20:35:00
3:55 PM,21.2,14.5,75,29.99,7.0,WSW,8.1,-,N/A,Snow,Light Snow,250,2013-01-01 20:55:00
4:15 PM,21.2,13.3,72,30.00,10.0,WSW,8.1,-,N/A,Snow,Light Snow,250,2013-01-01 21:15:00
4:35 PM,21.2,12.0,68,30.00,10.0,WSW,6.9,-,N/A,Snow,Light Snow,250,2013-01-01 21:35:00
5:15 PM,19.0,10.2,69,30.00,10.0,WSW,11.5,16.1,N/A,Snow,Light Snow,250,2013-01-01 22:15:00
5:35 PM,18.9,11.1,72,30.00,10.0,WSW,10.4,-,N/A,Snow,Light Snow,240,2013-01-01 22:35:00
6:15 PM,18.9,11.1,72,30.00,10.0,West,6.9,-,N/A,Snow,Light Snow,260,2013-01-01 23:15:00
6:35 PM,18.9,10.9,71,29.99,10.0,WSW,10.4,17.3,N/A,Snow,Light Snow,250,2013-01-01 23:35:00
6:55 PM,17.4,9.7,72,29.99,10.0,WSW,11.5,17.3,N/A,Snow,Light Snow,240,2013-01-01 23:55:00
7:15 PM,16.5,9.1,73,30.00,10.0,West,11.5,17.3,N/A,Snow,Light Snow,260,2013-01-02 00:15:00
7:35 PM,16.3,9.3,74,29.99,10.0,WSW,12.7,-,N/A,Snow,Light Snow,250,2013-01-02 00:35:00
7:55 PM,16.3,9.7,75,29.99,10.0,WSW,13.8,-,N/A,Snow,Light Snow,250,2013-01-02 00:55:00
8:14 PM,16.3,9.5,74,29.99,10.0,WSW,9.2,16.1,N/A,Snow,Light Snow,250,2013-01-02 01:14:00
8:35 PM,16.3,9.5,74,29.99,10.0,West,10.4,-,N/A,Snow,Light Snow,260,2013-01-02 01:35:00
8:55 PM,16.3,9.9,76,29.98,10.0,WSW,11.5,-,N/A,Snow,Light Snow,250,2013-01-02 01:55:00
9:14 PM,16.3,10.2,77,29.98,10.0,West,10.4,-,N/A,Snow,Light Snow,260,2013-01-02 02:14:00
9:35 PM,16.3,10.0,76,29.99,10.0,WSW,9.2,16.1,N/A,Snow,Light Snow,250,2013-01-02 02:35:00
9:55 PM,16.3,9.7,75,29.99,10.0,West,13.8,20.7,N/A,Snow,Light Snow,270,2013-01-02 02:55:00
10:14 PM,16.3,9.7,75,29.98,10.0,West,12.7,19.6,N/A,Snow,Light Snow,260,2013-01-02 03:14:00
10:35 PM,16.3,10.0,76,29.98,10.0,West,9.2,-,N/A,Snow,Light Snow,260,2013-01-02 03:35:00
10:55 PM,16.3,10.0,76,29.98,10.0,WSW,13.8,-,N/A,Snow,Light Snow,250,2013-01-02 03:55:00
11:14 PM,16.3,10.0,76,29.98,10.0,WSW,8.1,17.3,N/A,Snow,Light Snow,250,2013-01-02 04:14:00
11:35 PM,16.3,9.9,76,29.98,10.0,West,6.9,10.4,N/A,Snow,Light Snow,260,2013-01-02 04:35:00
11:55 PM,16.5,9.9,75,29.97,10.0,WSW,9.2,-,N/A,,Overcast,250,2013-01-02 04:55:00